User: anonymous   Login
Location: Le Domaine
(47.0333°N, 76.5361°W)
Time: 02:45:12
(UTC-05:00)
Language:

Vanguard 1 - Orbit

View from above orbital plane
View from above orbital plane
View from above satellite
View from above satellite

Ground track
Ground track

The orbit data is extracted from the following two-line orbital elements,

1     5U 58002B   19315.76872800 +.00000136 +00000-0 +19934-3 0  9996
2     5 034.2408 181.9744 1843608 088.3018 292.6659 10.84783798181509
Epoch (UTC): 11 November 2019 18:26:58
Eccentricity: 0.1843608
inclination: 34.2408°
perigee height: 652 km
apogee height: 3831 km
right ascension of ascending node: 181.9744°
argument of perigee: 88.3018°
revolutions per day: 10.84783798
mean anomaly at epoch: 292.6659°
orbit number at epoch: 18150

The dashed part of the orbit path shows where the satellite is in the earth's shadow,  

DLR